User: anonymous   Login
Location: Clatteringshaws Loch
(55.0508°N, 4.2860°W)
Time: 09:22:06
(UTC+01:00)
Language:

Cosmos 2221 Rocket - Orbit

View from above orbital plane
View from above orbital plane
View from above satellite
View from above satellite

Ground track
Ground track

The orbit data is extracted from the following two-line orbital elements,

1 22237U 92080B   18145.57159571 +.00000103 +00000-0 +10900-4 0  9992
2 22237 082.5103 159.2240 0020193 161.7136 315.8675 14.78354978373936
Epoch (UTC): 25 May 2018 13:43:05
Eccentricity: 0.0020193
inclination: 82.5103°
perigee height: 620 km
apogee height: 648 km
right ascension of ascending node: 159.2240°
argument of perigee: 161.7136°
revolutions per day: 14.78354978
mean anomaly at epoch: 315.8675°
orbit number at epoch: 37393

The dashed part of the orbit path shows where the satellite is in the earth's shadow,  

DLR